Leadville, CO

12:23 PM MDT on May 25, 2017 (GMT -0600)
Lake County

Weather History for KLXV - October, 2011

Change the Weather History Date:

Sunday, October 2, 2011

  Actual Average Record
Temperature  
Mean Temperature 46 °F -  
Max Temperature 63 °F 55 °F 67 °F (1992)
Min Temperature 29 °F 27 °F 17 °F (1977)
Degree Days  
Heating Degree Days 19 24  
Month to date heating degree days 35 48  
Since 1 July heating degree days 1100 1346  
Cooling Degree Days 0 0  
Month to date cooling degree days 0 0  
Year to date cooling degree days 0 0  
Moisture  
Dew Point 28 °F    
Average Humidity 57    
Maximum Humidity 92    
Minimum Humidity 22    
Precipitation  
Precipitation T in 0.03 in 0.16 in (1990)
Month to date precipitation T 0.06  
Year to date precipitation 12.19 10.09  
Snow  
Snow 0.00 in - - ()
Month to date snowfall 0.0  
Snow Depth 0.00 in    
Sea Level Pressure  
Sea Level Pressure 30.11 in    
Wind  
Wind Speed 4 mph (NE)    
Max Wind Speed 18 mph    
Max Gust Speed 22 mph    
Visibility 10 miles    
Events      
T = Trace of Precipitation, MM = Missing Value Source: NWS Daily Summary

Daily Weather History Graph

Daily Weather History Graph

Search for Another Location

Airport or City:

Trip Planner

Search our weather history database for the weather conditions in past years. The results will help you decide how hot, cold, wet, or windy it might be!

Date:

Astronomy

Oct. 02, 2011 Rise Set
Actual Time 7:02 AM MDT 6:46 PM MDT
Civil Twilight 6:35 AM MDT 7:13 PM MDT
Nautical Twilight 6:04 AM MDT 7:44 PM MDT
Astronomical Twilight 5:33 AM MDT 8:15 PM MDT
Moon 1:08 PM MDT (10/2) 10:50 PM MDT (10/2)
Length of Visible Light 12h 37m
Length of Day
11h 44m
Waxing Crescent, 35% of the Moon is Illuminated
Oct 2
Waxing Crescent
Oct 3
First Quarter
Oct 11
Full
Oct 19
Last Quarter
Oct 26
New

Hourly Weather History & Observations

Time (MDT) Temp. Windchill Dew Point Humidity Pressure Visibility Wind Dir Wind Speed Gust Speed Precip Events Conditions
12:53 AM 39.0 °F - 30.0 °F 70% 30.08 in 10.0 mi Calm Calm - N/A   Clear
1:53 AM 35.1 °F - 28.9 °F 78% 30.12 in 10.0 mi Calm Calm - N/A   Clear
2:53 AM 33.1 °F 26.9 °F 28.0 °F 82% 30.15 in 10.0 mi ENE 6.9 mph - N/A   Clear
3:53 AM 33.1 °F 27.7 °F 28.0 °F 82% 30.15 in 10.0 mi East 5.8 mph - N/A   Clear
4:53 AM 33.1 °F - 28.0 °F 82% 30.16 in 10.0 mi Calm Calm - N/A   Clear
5:53 AM 33.1 °F - 28.0 °F 82% 30.16 in 10.0 mi Calm Calm - N/A   Clear
6:53 AM 28.9 °F 25.2 °F 26.1 °F 89% 30.21 in 10.0 mi ESE 3.5 mph - N/A   Clear
7:53 AM 32.0 °F 28.7 °F 28.0 °F 85% 30.22 in 10.0 mi NE 3.5 mph - N/A   Clear
8:53 AM 43.0 °F - 30.9 °F 62% 30.15 in 10.0 mi Calm Calm - N/A   Clear
9:53 AM 50.0 °F - 32.0 °F 50% 30.11 in 10.0 mi Calm Calm - N/A   Clear
10:53 AM 57.0 °F - 27.0 °F 32% 30.08 in 10.0 mi ENE 3.5 mph - N/A   Clear
11:53 AM 57.9 °F - 24.1 °F 27% 30.07 in 10.0 mi NNW 6.9 mph - N/A   Mostly Cloudy
12:53 PM 60.1 °F - 21.9 °F 23% 30.03 in 10.0 mi Calm Calm - N/A   Mostly Cloudy
1:53 PM 61.0 °F - 23.0 °F 23% 30.04 in 10.0 mi WNW 13.8 mph - N/A   Scattered Clouds
2:53 PM 59.0 °F - 26.1 °F 28% 30.06 in 10.0 mi WNW 16.1 mph 21.9 mph N/A   Partly Cloudy
3:53 PM 57.9 °F - 26.1 °F 30% 30.06 in 10.0 mi North 4.6 mph - N/A   Mostly Cloudy
4:53 PM 57.9 °F - 26.1 °F 30% 30.05 in 10.0 mi NE 4.6 mph - N/A   Overcast
5:53 PM 55.9 °F - 27.0 °F 33% 30.06 in 10.0 mi NNE 6.9 mph - 0.00 in   Overcast
6:53 PM 52.0 °F - 28.9 °F 41% 30.13 in 10.0 mi Calm Calm - N/A   Mostly Cloudy
7:53 PM 46.9 °F - 28.0 °F 48% 30.16 in 10.0 mi East 5.8 mph - N/A   Mostly Cloudy
8:53 PM 46.9 °F - 28.9 °F 50% 30.11 in 10.0 mi Calm Calm - N/A   Mostly Cloudy
9:53 PM 48.0 °F - 30.9 °F 52% 30.07 in 10.0 mi NNE 8.1 mph - N/A   Overcast
10:53 PM 41.0 °F - 28.9 °F 62% 30.06 in 10.0 mi Calm Calm - N/A   Partly Cloudy
11:53 PM 39.0 °F 36.8 °F 28.9 °F 67% 30.07 in 10.0 mi NE 3.5 mph - N/A   Clear